Retour au catalogue

SL-14 R/B

ActifPO
NORAD 17192·ROCKET BODY·🇷🇺 Russia

Lancé Dec 10, 1986 depuis Plesetsk Cosmodrome

Loading…

Prochains Passages (prochaines 24 heures)

TLE

FraisSource: Space-Track

Époque: Sep 14, 2026, 23:11 UTC

1 17192U 86097B   26257.96616905  .00000308  00000-0  32278-4 0  9991
2 17192  82.5077 323.7998 0017548 116.4250  56.1910 14.86045976128458

Suivez SL-14 R/B en temps réel avec AllMySat

Download on the App Store